FW7576 Weather Reports


time (UTC)temp
C
wind
direction
speed
KPH
gust
KPH
rain 1hr
cm
rain 24hr
cm
rain mn
cm
humidity
%
barometer
mb
20260510004538 16 347 8.0 19.3 0.00 0.00 0.00 37 1008.0
20260510003041 16 294 4.8 17.7 0.00 0.00 0.00 37 1007.8
20260510001539 16 329 8.0 16.1 0.00 0.00 0.00 36 1007.6
20260510000041 17 63 6.4 17.7 0.00 0.00 0.00 37 1007.3
20260509234538 17 8 8.0 17.7 0.00 0.00 0.00 37 1007.1
20260509233046 17 293 4.8 20.9 0.00 0.00 0.00 37 1007.0
20260509231535 17 304 8.0 22.5 0.00 0.00 0.00 38 1006.9
20260509230035 17 316 9.7 25.7 0.00 0.00 0.00 37 1006.5
20260509224540 17 318 12.9 32.2 0.00 0.00 0.00 36 1006.4
20260509223045 17 326 8.0 30.6 0.00 0.00 0.00 36 1006.2
20260509221542 18 283 8.0 25.7 0.00 0.00 0.00 37 1006.0
20260509220040 17 358 12.9 27.4 0.00 0.00 0.00 38 1005.8
20260509214537 18 7 12.9 29.0 0.00 0.00 0.00 37 1005.5
20260509213036 18 320 12.9 25.7 0.00 0.00 0.00 37 1005.3
20260509211540 18 288 14.5 29.0 0.00 0.00 0.00 36 1005.0
20260509210050 18 290 8.0 38.6 0.00 0.00 0.00 37 1004.9
20260509204537 18 321 9.7 35.4 0.00 0.00 0.00 37 1004.4
20260509203036 18 348 14.5 32.2 0.00 0.00 0.00 40 1004.6
20260509201535 18 343 14.5 32.2 0.00 0.00 0.00 40 1004.3
20260509200043 19 339 11.3 35.4 0.00 0.00 0.00 36 1004.0
20260509194539 18 249 12.9 29.0 0.00 0.00 0.00 36 1003.7
20260509193037 19 309 11.3 24.1 0.00 0.00 0.00 38 1003.4
20260509191537 20 293 16.1 30.6 0.00 0.00 0.00 35 1003.4
20260509190040 20 295 11.3 29.0 0.00 0.00 0.00 37 1003.3
20260509184536 20 245 12.9 33.8 0.00 0.00 0.00 37 1003.1
20260509183039 19 273 11.3 29.0 0.00 0.00 0.00 36 1003.1
20260509181534 19 267 19.3 37.0 0.00 0.00 0.00 36 1003.1
20260509180035 19 287 16.1 40.2 0.00 0.00 0.00 35 1003.1
20260509174536 20 243 11.3 33.8 0.00 0.00 0.00 36 1003.2
20260509173103 18 277 12.9 25.7 0.00 0.00 0.00 35 1003.2
20260509171539 18 233 12.9 30.6 0.00 0.00 0.00 36 1003.3
20260509170049 17 250 12.9 24.1 0.00 0.00 0.00 36 1003.3
20260509164537 17 256 8.0 20.9 0.00 0.00 0.00 36 1003.4
20260509163041 17 221 4.8 14.5 0.00 0.00 0.00 36 1003.4
20260509161542 17 314 8.0 22.5 0.00 0.00 0.00 35 1003.7
20260509160041 17 290 4.8 14.5 0.00 0.00 0.00 34 1003.8
20260509154538 16 276 4.8 16.1 0.00 0.00 0.00 37 1003.7
20260509153036 16 354 8.0 19.3 0.00 0.00 0.00 37 1003.6
20260509151543 16 300 6.4 17.7 0.00 0.00 0.00 42 1003.4
20260509150043 16 274 4.8 14.5 0.00 0.00 0.00 43 1003.1
20260509144539 16 296 3.2 14.5 0.00 0.00 0.00 44 1002.8
20260509143047 16 290 6.4 9.7 0.00 0.00 0.00 44 1002.7
20260509141534 16 231 8.0 20.9 0.00 0.00 0.00 43 1002.8
20260509140043 16 257 8.0 16.1 0.00 0.00 0.00 46 1002.6
20260509134542 15 259 4.8 14.5 0.00 0.00 0.00 51 1002.5
20260509133038 15 240 6.4 17.7 0.00 0.00 0.00 55 1002.6
20260509131545 14 240 4.8 19.3 0.00 0.00 0.00 63 1002.4
20260509130059 13 262 9.7 22.5 0.00 0.00 0.00 65 1002.3
20260509124540 13 250 6.4 20.9 0.00 0.00 0.00 70 1002.4
20260509123103 13 263 6.4 17.7 0.00 0.00 0.00 75 1002.2
20260509121541 12 238 9.7 17.7 0.00 0.00 0.00 77 1002.5
20260509120047 12 252 9.7 20.9 0.00 0.00 0.00 79 1002.2
20260509114551 12 253 8.0 20.9 0.00 0.00 0.00 81 1002.1
20260509113036 11 252 11.3 17.7 0.00 0.00 0.00 82 1001.9
20260509111542 11 246 9.7 22.5 0.00 0.00 0.00 82 1001.7
20260509110049 11 240 11.3 19.3 0.00 0.00 0.00 82 1001.7
20260509104539 11 257 6.4 17.7 0.00 0.00 0.00 82 1001.5
20260509103041 11 271 8.0 14.5 0.00 0.00 0.00 81 1001.2
20260509101552 12 266 8.0 16.1 0.00 0.00 0.00 80 1001.1
20260509100038 12 243 9.7 16.1 0.00 0.00 0.00 80 1001.2
20260509094536 12 229 8.0 20.9 0.00 0.00 0.00 79 1001.4
20260509093036 12 253 8.0 25.7 0.00 0.00 0.00 79 1001.5
20260509091543 12 226 8.0 20.9 0.00 0.00 0.00 79 1001.5
20260509090038 12 260 6.4 20.9 0.00 0.00 0.00 79 1001.6
20260509084536 12 233 8.0 17.7 0.00 0.00 0.00 80 1001.4
20260509083035 12 210 9.7 19.3 0.00 0.00 0.00 81 1001.5
20260509081532 11 208 6.4 12.9 0.00 0.00 0.00 80 1001.4
20260509080043 12 200 8.0 14.5 0.00 0.00 0.00 80 1001.5
20260509074537 12 245 6.4 16.1 0.00 0.00 0.00 78 1001.7
20260509073044 12 222 8.0 17.7 0.00 0.00 0.00 77 1001.9
20260509071543 11 206 6.4 12.9 0.00 0.00 0.00 76 1001.9
20260509070044 11 213 4.8 14.5 0.00 0.00 0.00 75 1002.3
20260509064553 11 261 4.8 12.9 0.00 0.00 0.00 73 1002.5
20260509063038 11 225 4.8 11.3 0.00 0.00 0.00 72 1002.6
20260509061545 11 195 4.8 16.1 0.00 0.00 0.00 72 1002.9
20260509060036 11 252 4.8 12.9 0.00 0.00 0.00 73 1002.9
20260509054538 11 233 4.8 11.3 0.00 0.00 0.00 72 1003.3
20260509053039 11 195 3.2 11.3 0.00 0.00 0.00 73 1003.7
20260509051538 10 193 1.6 14.5 0.00 0.00 0.00 73 1003.9
20260509050037 10 224 1.6 9.7 0.00 0.00 0.00 73 1003.9
20260509044536 10 203 1.6 11.3 0.00 0.00 0.00 73 1003.8
20260509043039 10 245 3.2 12.9 0.00 0.00 0.00 73 1004.2
20260509041540 10 220 3.2 12.9 0.00 0.00 0.00 73 1004.0
20260509040043 10 236 3.2 8.0 0.00 0.00 0.00 73 1004.0
20260509034540 10 158 4.8 11.3 0.00 0.00 0.00 72 1004.2
20260509033044 11 175 3.2 11.3 0.00 0.00 0.00 71 1004.4
20260509031548 11 239 3.2 12.9 0.00 0.00 0.00 70 1004.4
20260509030040 11 217 4.8 12.9 0.00 0.00 0.00 69 1004.6
20260509024539 11 231 4.8 11.3 0.00 0.00 0.00 68 1004.6
20260509023039 11 233 3.2 11.3 0.00 0.00 0.00 66 1004.6
20260509021538 11 162 3.2 8.0 0.00 0.00 0.00 64 1004.7
20260509020038 11 214 3.2 8.0 0.00 0.00 0.00 62 1004.8
20260509014540 11 150 4.8 8.0 0.00 0.00 0.00 61 1004.9
20260509013035 12 162 3.2 8.0 0.00 0.00 0.00 60 1004.9
20260509011538 12 159 3.2 9.7 0.00 0.00 0.00 58 1004.9
20260509010044 13 148 1.6 8.0 0.00 0.00 0.00 55 1005.0